World > North America > United States > Michigan > Mayville   Village of Mayville, Michigan

Mayville, MI Hourly Weather Updates

Feedback E-mail the Weather

Quick Clicks

Mayville, MI Weather Maps

°F °C°F °C
Mayville Weather Map
UTC Time: 5/24/2024, 13:04
Your Time:

Mayville, MI Regional Weather

Expires:202405241400;;780907
ASUS43 KDTX 241301
RWRMI 
MICHIGAN HOURLY REGIONAL WEATHER ROUNDUP
NATIONAL WEATHER SERVICE DETROIT/PONTIAC MI
900 AM EDT FRI MAY 24 2024

NOTE: "FAIR" INDICATES FEW OR NO CLOUDS BELOW 12,000 FEET WITH NO
SIGNIFICANT WEATHER AND/OR OBSTRUCTION TO VISIBILITY.


MIZ047>049-052>055-059>063-066>070-074>076-081>083-241400-
SOUTHEAST LOWER MICHIGAN
  
CITY           SKY/WX    TMP DP  RH WIND       PRES   REMARKS
ADRIAN         MOSUNNY   67  48  50 S3        29.93R TC  19           
ALMA           MOSUNNY   62  47  58 NE7       29.93R TC  17           
ANN ARBOR      MOSUNNY   66  55  67 CALM      29.92R TC  19           
BAD AXE        SUNNY     56  40  53 NE6       29.94R TC  14           
CARO           MOSUNNY   58  41  53 E6        29.93S TC  14           
DETROIT CITY   SUNNY     64  47  53 NE9       29.93R TC  18           
DETROIT        PTSUNNY   68  50  52 VRB3      29.93R TC  20           
FLINT          SUNNY     63  50  62 E8        29.93R TC  17           
GROSSE ILE     MOSUNNY   68  41  37 NE5       29.92R TC  20           
HILLSDALE      MOSUNNY   65  39  38 SE3       29.93R TC  18           
HOWELL         MOSUNNY   65  51  61 CALM      29.93R TC  18           

CITY           SKY/WX    TMP DP  RH WIND       PRES   REMARKS
JACKSON        PTSUNNY   67  47  48 E5        29.92R TC  19           
LAMBERTVILLE   SUNNY     70  45  41 E3        29.92R TC  21           
LANSING        MOSUNNY   68  48  48 NE7       29.92R TC  20           
LAPEER         SUNNY     57  41  55 NE6       29.94S TC  14           
MASON          MOSUNNY   67  45  46 S3        29.91S TC  19           
MONROE         SUNNY     69  47  44 CALM      29.92R TC  21           
MT. CLEMENS    PTSUNNY   60  44  56 NE9       29.90F TC  15           
PONTIAC        PTSUNNY   64  45  49 E7        29.94R TC  18           
PORT HOPE        N/A     55  41  59 NE3       29.93S TC  13           
PORT HURON     SUNNY     59  41  51 NE8       29.94S TC  15           
TRI CITIES     MOSUNNY   59  42  53 E9        29.94S TC  15           
MIDLAND        MOSUNNY   61  49  66 E6        29.93R TC  16           
TROY           SUNNY     63  46  52 NE6       29.95R TC  17           
SAGINAW HB     MOSUNNY   59  43  55 E7        29.93R TC  15           
$$

SKY/WX - Weather  TMP - Temperature  DP - Dew Point  RH - Humidity
WIND - Wind Direction/Speed PRES - Barometric Pressure VSB - Visibility
WCI - Wind Chill Index E13G22 Wind - East Wind 13 mph/Gusts of 22 mph

Trending Headlines

Trending Entertainment Headlines

Mayville Radar Loop

Use the map search tool if you want to place a location marker on the radar map...

Mayville Quick Facts

National Two Day Weather Forecast


E-mail the Mayville Weather Forecast

Voice your opinion or tell us about page issues...